Sigfox identifier Datetime Temperature Humidity SNR
003872C2 2018-10-09 08:43:51 21.5 37 16.4
003872C2 2018-10-09 07:37:17 21.5 37 16.1
003872C2 2018-10-09 06:30:43 21.5 37 15.9
003872C2 2018-10-09 05:24:08 21.5 36 15.7
003872C2 2018-10-09 02:04:24 21.5 36 15.5
003872C2 2018-10-09 00:57:49 21.5 36 15.6
003872C2 2018-10-08 23:51:16 21.5 36 15.2
003872C2 2018-10-08 22:44:42 21.5 36 14.8
003872C2 2018-10-08 21:38:11 21.5 36 14.9
003872C2 2018-10-08 20:31:33 21.5 36 14.4
003872C2 2018-10-08 19:24:57 21.5 36 14.1
003872C2 2018-10-08 18:18:20 21.4 36 13.6
003872C2 2018-10-08 17:11:48 21.3 36 13.7
003872C2 2018-10-08 16:05:11 21.3 36 13.7
003872C2 2018-10-08 14:58:35 21.3 36 13.9
003872C2 2018-10-08 13:52:01 21.1 36 13.4
003872C2 2018-10-08 12:45:27 21.1 36 13.6
003872C2 2018-10-08 11:38:54 21.1 36 13.6
003872C2 2018-10-08 10:32:17 21.1 37 13.6
003872C2 2018-10-08 09:25:46 21.1 37 13.6
003872C2 2018-10-08 08:19:11 21.1 37 13.8
003872C2 2018-10-08 06:06:02 21.1 37 13.4
003872C2 2018-10-08 04:59:26 21.1 37 13.4
003872C2 2018-10-08 03:52:52 21.1 37 13.4
003872C2 2018-10-08 02:46:18 21.2 37 13.3
003872C2 2018-10-08 00:33:07 21.2 37 13.5
003872C2 2018-10-07 22:20:00 21.3 37 13.7
003872C2 2018-10-07 21:13:20 21.3 37 13.6
003872C2 2018-10-07 20:06:43 21.3 37 13.8
003872C2 2018-10-07 19:00:08 21.3 37 13.5
003872C2 2018-10-07 16:46:55 21.3 37 13.4
003872C2 2018-10-07 15:40:15 21.3 37 13.6
003872C2 2018-10-07 14:33:36 21.3 37 13.5
003872C2 2018-10-07 13:27:02 21.3 37 13.5
003872C2 2018-10-07 12:20:26 21.3 37 13.8
003872C2 2018-10-07 11:13:46 21.3 37 14
003872C2 2018-10-07 10:07:11 21.3 37 13.9
003872C2 2018-10-07 09:00:37 21.3 37 13.9
003872C2 2018-10-07 07:53:59 21.4 37 14.2
003872C2 2018-10-07 06:47:26 21.3 37 14.1
003872C2 2018-10-07 05:40:48 21.3 37 14.3
003872C2 2018-10-07 04:34:09 21.4 37 14.5
003872C2 2018-10-07 02:20:58 21.5 37 14.4
003872C2 2018-10-07 00:07:47 21.5 37 14.5
003872C2 2018-10-06 23:01:15 21.5 37 14.5
003872C2 2018-10-06 21:54:38 21.5 37 14.7
003872C2 2018-10-06 20:48:01 21.5 37 15
003872C2 2018-10-06 19:41:30 21.5 37 15.1
003872C2 2018-10-06 18:34:50 21.5 37 15.5
003872C2 2018-10-06 17:28:13 21.5 37 16
003872C2 2018-10-06 16:21:39 21.5 37 16
003872C2 2018-10-06 15:14:59 21.5 37 16.1
003872C2 2018-10-06 14:08:23 21.5 37 16.3
003872C2 2018-10-06 13:01:43 21.5 37 16.2
003872C2 2018-10-06 11:55:04 21.5 37 16.3
003872C2 2018-10-06 10:48:26 21.5 37 19.2
003872C2 2018-10-06 09:41:48 21.5 37 19.1
003872C2 2018-10-06 06:21:57 21.7 37 19.1
003872C2 2018-10-06 05:15:17 21.7 37 19.1
003872C2 2018-10-06 04:08:37 21.7 37 19
003872C2 2018-10-06 03:02:00 21.7 37 18.9
003872C2 2018-10-06 01:55:17 21.8 37 18.9
003872C2 2018-10-06 00:48:41 21.8 37 20.7
003872C2 2018-10-05 23:42:00 21.8 37 20.6
003872C2 2018-10-05 22:35:25 21.8 37 20.7
003872C2 2018-10-05 21:28:50 21.8 37 20.7
003872C2 2018-10-05 20:22:16 21.8 37 20.6
003872C2 2018-10-05 19:15:40 21.8 36 20.7
003872C2 2018-10-05 18:09:06 21.8 36 20.7
003872C2 2018-10-05 17:02:36 21.7 36 20.7
003872C2 2018-10-05 15:55:56 21.7 36 20.6
003872C2 2018-10-05 14:49:19 21.5 36 20.5
003872C2 2018-10-05 13:42:47 21.5 35 20.5
003872C2 2018-10-05 12:36:07 21.5 35 20.4
003872C2 2018-10-05 11:29:31 21.4 34 20.3
003872C2 2018-10-05 10:22:54 21.3 33 20.2
003872C2 2018-10-05 09:16:21 21.2 33 20.1
003872C2 2018-10-05 08:09:45 21.1 33 20.1
003872C2 2018-10-05 07:03:10 21.1 32 20.1
003872C2 2018-10-05 05:56:34 21.1 33 21.5
003872C2 2018-10-05 04:49:56 21.2 33 20.2
003872C2 2018-10-05 03:43:17 21.3 33 20.2
003872C2 2018-10-05 02:36:37 21.3 33 20.1
003872C2 2018-10-05 01:29:58 21.3 33 20.1
003872C2 2018-10-05 00:23:19 21.3 33 20.1
003872C2 2018-10-04 23:16:44 21.3 33 20.1
003872C2 2018-10-04 22:10:03 21.3 33 20.1
003872C2 2018-10-04 21:03:22 21.3 33 18
003872C2 2018-10-04 19:56:39 21.3 33 17.9
003872C2 2018-10-04 18:50:00 21.3 33 17.8
003872C2 2018-10-04 17:43:23 21.1 33 17.7
003872C2 2018-10-04 16:36:41 21.1 33 17.6
003872C2 2018-10-04 14:23:24 20.9 32 17.3
003872C2 2018-10-04 13:16:42 20.9 33 17.3
003872C2 2018-10-04 12:10:00 20.9 33 17.3
003872C2 2018-10-04 11:03:18 20.8 34 17.8
003872C2 2018-10-04 05:29:59 20.8 38 17.8
003872C2 2018-10-04 04:23:18 20.8 38 17.8
003872C2 2018-10-04 03:16:37 20.8 39 18.6
003872C2 2018-10-04 02:09:57 20.9 39 18.9
003872C2 2018-10-04 01:03:16 20.9 39 19.2
003872C2 2018-10-03 23:56:36 20.9 40 19.4
003872C2 2018-10-03 20:36:38 20.9 41 19.5
003872C2 2018-10-03 19:29:58 20.9 41 19.5
003872C2 2018-10-03 17:16:36 20.9 42 16.8
003872C2 2018-10-03 16:09:56 20.7 43 16.7
003872C2 2018-10-03 10:36:18 20.5 41 17.7
003872C2 2018-10-03 09:29:40 20.5 41 18.3
003872C2 2018-10-03 06:09:25 20.5 41 18.9
003872C2 2018-10-03 05:02:42 20.5 41 18.9
003872C2 2018-10-03 03:55:59 20.5 41 19
003872C2 2018-10-03 02:49:18 20.5 41 19.4
003872C2 2018-10-03 01:42:37 20.5 41 19.6
003872C2 2018-10-03 00:35:52 20.5 41 19.8
003872C2 2018-10-02 23:29:06 20.6 41 20.5
003872C2 2018-10-02 22:22:23 20.6 41 20.7
003872C2 2018-10-02 19:02:09 20.6 41 20.9
003872C2 2018-10-02 16:48:38 20.7 42 21.1
003872C2 2018-10-02 15:41:53 20.7 42 21.3
003872C2 2018-10-02 14:35:10 20.7 42 21.5
003872C2 2018-10-02 13:28:25 20.7 43 21.4
003872C2 2018-10-02 12:21:41 20.7 43 21.6
003872C2 2018-10-02 11:14:56 20.7 44 21.8
003872C2 2018-10-02 10:08:09 20.5 42 21.5
003872C2 2018-10-02 09:01:23 20.5 43 21.6
003872C2 2018-10-02 07:54:37 20.3 40 21.5
003872C2 2018-10-02 06:47:55 20.5 43 21.6
003872C2 2018-10-02 05:41:07 20.5 43 21.7
003872C2 2018-10-02 04:34:22 20.5 43 22
003872C2 2018-10-02 03:27:36 20.7 43 22.4
003872C2 2018-10-02 02:20:52 20.6 43 22.7
003872C2 2018-10-02 01:14:04 20.7 43 22.5
003872C2 2018-10-02 00:07:16 20.6 43 22.2
003872C2 2018-10-01 23:00:30 20.7 43 22
003872C2 2018-10-01 21:53:45 20.6 43 22.6
003872C2 2018-10-01 20:46:59 20.7 43 23.1
003872C2 2018-10-01 19:40:15 20.6 43 23.1
003872C2 2018-10-01 18:33:31 20.5 42 23.8
003872C2 2018-10-01 17:26:47 20.4 42 24.9
003872C2 2018-10-01 16:19:57 20.3 44 22.5